USA 271

Last updated on Wed Dec 17 2025 00:02:52 GMT+0000 (Coordinated Universal Time)

1 41745U 16052B 25348.79945663 -.00000287 00000+0 00000+0 0 9992 2 41745 3.6968 79.6251 0001968 43.8345 20.8216 1.00418411 26070
UTC large
Height (km)
Speed (km/s)
/
Latitude / Longitude
Inclination (degrees)
Orbital Period (minutes)
Azimuth
Elevation
Range (km)
Doppler Factor

Next 0 passes for location: London (51.5072 / 0.1276)

Sorry there are no passes over London.